Weather History for Fort Myers, FL

Change the Weather History Date:

Sunday, April 21, 2013

  Actual Average Record
Temperature  
Mean Temperature 77 °F 75 °F  
Max Temperature 89 °F 86 °F 95 °F (1944)
Min Temperature 64 °F 64 °F 48 °F (1953)
Degree Days  
Heating Degree Days 0 0  
Month to date heating degree days 0 0  
Since 1 July heating degree days 201 284  
Cooling Degree Days 12 10  
Month to date cooling degree days 255 174  
Year to date cooling degree days 637 535  
Growing Degree Days 26 (Base 50)    
Moisture  
Dew Point 66 °F    
Average Humidity 85    
Maximum Humidity 93    
Minimum Humidity 46    
Precipitation  
Precipitation 0.71 in 0.07 in 3.78 in (1949)
Month to date precipitation 2.64 1.56  
Year to date precipitation 5.90 8.53  
Sea Level Pressure  
Sea Level Pressure 30.06 in    
Wind  
Wind Speed 7 mph (ENE)    
Max Wind Speed 20 mph    
Max Gust Speed 25 mph    
Visibility 8 miles    
Events Rain , Thunderstorm    
T = Trace of Precipitation, MM = Missing Value Source: NWS Daily Summary

Daily Weather History Graph

Daily Weather History Graph

Search for Another Location

Airport:

Trip Planner

Search our weather history database for the weather conditions in past years. The results will help you decide how hot, cold, wet, or windy it might be!

Date:

Astronomy

Apr. 21, 2013 Rise Set
Actual Time 6:57 AM EDT 7:54 PM EDT
Civil Twilight 6:33 AM EDT 8:18 PM EDT
Nautical Twilight 6:05 AM EDT 8:46 PM EDT
Astronomical Twilight 5:36 AM EDT 9:15 PM EDT
Moon 4:00 PM EDT (4/21) 3:54 AM EDT (4/21)
Length of Visible Light 13h 44m
Length of Day
12h 56m
Waxing Gibbous, 79% of the Moon is Illuminated
Apr 21
Waxing Gibbous
Apr 25
Full
May 2
Last Quarter
May 9
New
May 18
First Quarter

Hourly Weather History & Observations

Time (EDT) Temp. Heat Index Dew Point Humidity Pressure Visibility Wind Dir Wind Speed Gust Speed Precip Events Conditions
12:26 AM 69.8 °F - 68.0 °F 94% 30.12 in 7.0 mi North 4.6 mph - 0.00 in Rain Light Rain
12:38 AM 69.8 °F - 68.0 °F 94% 30.12 in 4.0 mi NE 5.8 mph - 0.04 in Rain Light Rain
12:53 AM 70.0 °F - 68.0 °F 93% 30.12 in 6.0 mi NNE 4.6 mph - 0.06 in Rain Light Rain
1:30 AM 68.0 °F - 66.2 °F 94% 30.08 in 10.0 mi East 6.9 mph - 0.01 in Rain Light Rain
1:53 AM 68.0 °F - 66.9 °F 96% 30.07 in 9.0 mi East 9.2 mph - 0.02 in Rain Light Rain
2:25 AM 68.0 °F - 66.2 °F 94% 30.06 in 9.0 mi NE 8.1 mph - 0.00 in   Mostly Cloudy
2:53 AM 68.0 °F - 66.0 °F 93% 30.04 in 10.0 mi ENE 6.9 mph - 0.00 in   Overcast
3:53 AM 66.9 °F - 64.9 °F 93% 30.06 in 10.0 mi NNE 11.5 mph - 0.00 in   Overcast
4:18 AM 66.2 °F - 64.4 °F 94% 30.03 in 10.0 mi East 6.9 mph - 0.00 in Rain Light Rain
4:25 AM 66.2 °F - 64.4 °F 94% 30.03 in 10.0 mi SE 6.9 mph - 0.00 in Rain Light Rain
4:53 AM 66.9 °F - 64.9 °F 93% 30.04 in 10.0 mi NNE 5.8 mph - 0.00 in   Scattered Clouds
5:05 AM 66.2 °F - 64.4 °F 94% 30.03 in 10.0 mi NE 8.1 mph - N/A   Mostly Cloudy
5:15 AM 66.2 °F - 64.4 °F 94% 30.04 in 9.0 mi NNE 10.4 mph - N/A   Mostly Cloudy
5:53 AM 64.9 °F - 63.0 °F 93% 30.05 in 10.0 mi NE 8.1 mph - N/A   Mostly Cloudy
6:03 AM 64.4 °F - 62.6 °F 94% 30.04 in 10.0 mi NE 10.4 mph - N/A   Overcast
6:38 AM 64.4 °F - 62.6 °F 94% 30.06 in 9.0 mi NE 11.5 mph - N/A   Overcast
6:53 AM 64.0 °F - 63.0 °F 96% 30.07 in 10.0 mi ENE 9.2 mph - N/A   Overcast
7:31 AM 64.4 °F - 62.6 °F 94% 30.08 in 10.0 mi ENE 4.6 mph - N/A   Mostly Cloudy
7:53 AM 64.9 °F - 62.1 °F 90% 30.10 in 10.0 mi ENE 6.9 mph - N/A   Scattered Clouds
8:53 AM 68.0 °F - 63.0 °F 84% 30.11 in 10.0 mi ENE 10.4 mph - N/A   Clear
9:53 AM 72.0 °F - 64.9 °F 78% 30.10 in 10.0 mi East 9.2 mph - N/A   Clear
10:53 AM 77.0 °F - 66.9 °F 71% 30.10 in 10.0 mi ENE 8.1 mph - N/A   Clear
11:53 AM 80.1 °F 82.7 °F 68.0 °F 67% 30.10 in 10.0 mi NE 9.2 mph - N/A   Clear
12:53 PM 82.9 °F 85.4 °F 66.9 °F 58% 30.08 in 10.0 mi East 9.2 mph - N/A   Clear
1:53 PM 86.0 °F 88.8 °F 66.9 °F 53% 30.07 in 10.0 mi East 11.5 mph 16.1 mph N/A   Scattered Clouds
2:53 PM 86.0 °F 87.6 °F 64.9 °F 49% 30.02 in 10.0 mi East 6.9 mph - N/A   Scattered Clouds
3:53 PM 87.1 °F 88.9 °F 64.9 °F 48% 30.00 in 10.0 mi ESE 6.9 mph - N/A   Mostly Cloudy
4:48 PM 75.2 °F - 69.8 °F 83% 29.99 in 2.5 mi SSW 19.6 mph 25.3 mph 0.01 in Rain , Thunderstorm Light Rain
4:53 PM 73.9 °F - 69.1 °F 85% 30.00 in 1.2 mi SW 12.7 mph 25.3 mph 0.08 in Rain , Thunderstorm Heavy Rain
5:09 PM 73.4 °F - 69.8 °F 88% 29.99 in 3.0 mi WSW 8.1 mph - 0.12 in Rain , Thunderstorm Light Rain
5:53 PM 77.0 °F - 66.9 °F 71% 30.00 in 10.0 mi Calm Calm - 0.12 in   Clear
6:53 PM 78.1 °F - 70.0 °F 76% 30.02 in 10.0 mi SW 3.5 mph - N/A   Overcast
7:53 PM 75.0 °F - 66.9 °F 76% 30.05 in 10.0 mi SSE 5.8 mph - N/A   Overcast
8:53 PM 75.0 °F - 68.0 °F 79% 30.05 in 10.0 mi SSE 3.5 mph - N/A   Mostly Cloudy
9:53 PM 73.0 °F - 69.1 °F 87% 30.07 in 10.0 mi NE 5.8 mph - 0.00 in Rain Light Rain
10:53 PM 72.0 °F - 69.1 °F 91% 30.09 in 7.0 mi NE 6.9 mph - 0.02 in Rain Light Rain
11:10 PM 71.6 °F - 69.8 °F 94% 30.09 in 5.0 mi NNE 8.1 mph - 0.06 in Rain , Thunderstorm Rain
11:25 PM 69.8 °F - 68.0 °F 94% 30.09 in 6.0 mi NNE 6.9 mph - 0.11 in Rain Light Rain
11:53 PM 69.1 °F - 66.9 °F 93% 30.09 in 4.0 mi NE 9.2 mph - 0.23 in Rain Rain